Weather Roundup
Issued by NWS Springfield, MO

Home | Current Version | Previous Version | Text Only | Print | Product List | Glossary On
Versions: 1 2 3 4 5 6 7 8 9 10 11 12 13 14 15 16 17 18 19 20 21 22 23 24 25 26 27 28 29 30 31 32 33 34 35 36 37 38 39 40 41 42 43 44 45 46 47 48 49 50
471
NZUS99 KSGF 292207
HRRSGF

HOURLY WEATHER
NATIONAL WEATHER SERVICE SPRINGFIELD MO
500 PM CDT SUN MAY 29 2016

......SGF CWA......

CITY           SKY/WX    TMP DP  RH WIND       PRES   REMARKS
SPRINGFIELD    CLOUDY    83  60  45 W5        30.09S
JOPLIN         CLOUDY    85  62  46 NW7       30.08S
WEST PLAINS    MOSUNNY   82  62  50 VRB6      30.12F
ROLLA          MOSUNNY   82  60  47 CALM      30.07F
BRANSON        PTSUNNY   82  63  51 SE7       30.11F

......SURROUNDING SGF CWA......

CITY           SKY/WX    TMP DP  RH WIND       PRES   REMARKS
CHANUTE        CLOUDY    79  69  71 CALM      30.07F
PARSONS        CLOUDY    76  70  82 CALM      30.08S
COFFEYVILLE    CLOUDY    79  71  76 N5        30.06R
EMPORIA        MOSUNNY   84  65  52 S13       30.06F
GROVE OK       CLOUDY    86  66  51 CALM      30.07F
ROGERS AR        N/A     80  65  59 SE9       30.10F
SILOAM SPRINGS MOSUNNY   79  63  57 SE7       30.09F
HARRISON AR    MOSUNNY   83  62  49 NE6       30.12F
NEAR YELLVILLE MOSUNNY  N/A N/A N/A SE3       30.07S

......KANSAS AND MISSOURI......

CITY           SKY/WX    TMP DP  RH WIND       PRES   REMARKS
KANSAS CTY INT CLOUDY    82  61  48 SW5       30.06F
DOWNTOWN KC    CLOUDY    85  56  37 SW6       30.04F
COLUMBIA       SUNNY     86  56  35 NW5       30.07F
SEDALIA        MOSUNNY   85  58  39 CALM      30.07F
ST JOSEPH      SUNNY     87  57  35 W9        30.03F
ST LOUIS       PTSUNNY   87  56  34 NW9       30.06F
SPIRIT OF STL  MOSUNNY   87  56  34 W6        30.04F
KIRKSVILLE     MOSUNNY   82  62  50 W8        30.06F
WICHITA        PTSUNNY   81  61  50 E15       30.04S
TOPEKA         CLOUDY    82  60  47 S5        30.04F
OLATHE         CLOUDY    81  57  43 S7        30.07F

......TENNESSEE......

CITY           SKY/WX    TMP DP  RH WIND       PRES   REMARKS
MEMPHIS        CLOUDY    88  65  46 CALM      30.06F HX  90
NASHVILLE      MOSUNNY   90  63  40 NW8       30.04F HX  91

......ARKANSAS.......

CITY           SKY/WX    TMP DP  RH WIND       PRES   REMARKS
FAYETTEVILLE   SUNNY     82  64  54 E5        30.08F
FT SMITH       MOSUNNY   85  67  54 E9        30.04F
LITTLE ROCK    LGT RAIN  71  65  81 S6        30.10F

......OKLAHOMA.......

CITY           SKY/WX    TMP DP  RH WIND       PRES   REMARKS
TULSA          CLOUDY    83  71  67 NE10      30.03R THUNDER
PONCA CITY     MOSUNNY   79  61  53 E9        30.03F
MCALESTER      CLOUDY    83  69  62 CALM      30.03F
OKLAHOMA CITY  MOSUNNY   87  56  34 VRB5      30.02F

......IOWA............

CITY           SKY/WX    TMP DP  RH WIND       PRES   REMARKS
DES MOINES     MOSUNNY   83  52  34 W7        30.02F
QUAD CITIES    SUNNY     82  56  40 W10       30.01F

......ILLINOIS........

CITY           SKY/WX    TMP DP  RH WIND       PRES   REMARKS
QUINCY         MOSUNNY   83  57  41 W12       30.05F
CHICAGO        MOSUNNY   77  58  51 W16G22    29.98F




USA.gov is the U.S. government's official web portal to all federal, state and local government web resources and services.